User: anonymous   Login
Location: Caltech
(34.1382°N, 118.1253°W)
Time: 18:51:53
(UTC-07:00)
Language:

Cosmos 1025 Rocket - Orbit

View from above orbital plane
View from above orbital plane
View from above satellite
View from above satellite

Ground track
Ground track

The orbit data is extracted from the following two-line orbital elements,

1 10974U 78067B   15243.54776526  .00000189  00000-0  18325-4 0  9997
2 10974 082.4797 070.0632 0017481 001.0278 359.0972 14.87029757 10115
Epoch (UTC): 31 August 2015 13:08:46
Eccentricity: 0.0017481
inclination: 82.4797°
perigee height: 595 km
apogee height: 619 km
right ascension of ascending node: 70.0632°
argument of perigee: 1.0278°
revolutions per day: 14.87029757
mean anomaly at epoch: 359.0972°
orbit number at epoch: 1011

The dashed part of the orbit path shows where the satellite is in the earth's shadow,  

DLR